DELTA 1 DEB

Satellite information

Favourite Embed

Satellite Type and Status

DEBRISIN ORBIT

Key statistics

Satellite DELTA 1 DEB at a glance.

Uptime

18813

Days in orbit

Revolutions

≈ 12.6

Per day

Orbit

SSO

Sun Synchronous Orbit

Inclination

101.9

Latest

Satellite identification and parameters

Extended collection of information and parameters for DELTA 1 DEB.

Object identification

Identified? True

Debris? True

Object name: DELTA 1 DEB

International designator: 1973-086HE

Object number (NORAD): 19360

Object ID (CCSDS): 19360

Country: UNITED STATES OF AMERICA (US)

Current information (Y/N): Y

RCS size: SMALL

Orbital parameters

Period: 114.591 minutes

Inclination: 101.8818 deg

SMA: 7814.947 km

Apoapsis: 1478.977 km

Periapsis: 1394.647 km

RAAN: 198.6404 deg

Eccentricy: 0.0053954

Argument of periapsis: 181.4637 deg

Mean anomaly: 206.8693 deg

Mean motion: 12.56648131 rev/day

Mean motion (dot): 0.00001195 rev/day2

B* drag term: 0.0074324 1/REarth

Two-line elements (TLE)

Creation date: May 9, 2025, 2:46 a.m.

Reference frame: TEME

Reference center: EARTH

Epoch: May 8, 2025, 3:45 a.m. UTC

TLE line 0: 0 DELTA 1 DEB

TLE line 1: 1 19360U 73086HE 25128.15644116 .00001195 00000-0 74324-2 0 9997

TLE line 2: 2 19360 101.8818 198.6404 0053954 181.4637 206.8693 12.56648131828948

Live tracking on map

Real-time ground track for satellite DELTA 1 DEB.

In-orbit conjunctions

A list of the most updated potential collisions computed for object DELTA 1 DEB.

Target Orbit TCA Probability of collision Miss distance Type
COSMOS 1529 LEO 2024-06-03 14:22:55 0.0001727037 355.0 (m) PAYLOAD
COSMOS 2010 LEO 2024-06-02 23:10:21 0.0001010249 432.0 (m) PAYLOAD

Associated space launch

Meteorological satellite using radiometric imaging

DELTA 1 DEB was lifted into orbit during the mission ‘Delta 0300 | NOAA 3’, on board a Delta 0300 space rocket.

The launch took place on Nov. 6, 1973, 5:02 p.m. from Space Launch Complex 2W.

For more information about the launch, click the button.

Launch to space Delta 0300 | NOAA 3
Delta 0300 | NOAA 3

Agency: N/A

Status: Launch Successful

Launch date: Nov. 6, 1973, 5:02 p.m. UTC

Rocket: Delta 0300

Launch pad: Space Launch Complex 2W

Location: Vandenberg SFB, CA, USA

...

Latest news about this satellite

There are no fresh news available about this satellite. Check back as we update our databases every day.


Newsletter sign-up

Weekly statistics, charts and insights to help you stay on top of the space industry.